Location: Newark
(44.2003°N, 3.2583°E)
Time: 08:19:33
(UTC+00:00)

SR - Pass Details

Date: 22 October 2019
Orbit: 574 x 882 km, 66.7° (Epoch: 18 November)

Event Time Altitude Azimuth Distance (km) Brightness Sun altitude
Rises 03:42:30 0° 334° (NNW) 3,409 - -27.0°
Exits shadow 03:43:35 - 340° (NNW) 3,120 ? -26.8°
Reaches altitude 10° 03:46:28 10° 1° (N) 2,514 ? -26.3°
Maximum altitude 03:49:12 13° 29° (NNE) 2,302 ? -25.9°
Drops below altitude 10° 03:51:57 10° 57° (ENE) 2,543 ? -25.4°
Sets 03:56:00 0° 83° (E) 3,480 ? -24.7°
